This is the latest recevied weather packets stored in our database for station/object WA0LM. If no packets are shown the sender has not sent any weather packets the latest 10 day(s).
| Time | Temp. | Humidity | Pressure | Rain* | Wind** | Luminosity | Snow |
|---|---|---|---|---|---|---|---|
| 1777899717 | 10.56° C | 68% | 995.9 hPa | 0 mm | - | 123 W/m² | - |
| 1777899415 | 10.56° C | 65% | 995.9 hPa | 0 mm | - | 120 W/m² | - |
| 1777899113 | 10.56° C | 65% | 995.6 hPa | 0 mm | - | 77 W/m² | - |
| 1777898809 | 10.56° C | 64% | 995.7 hPa | 0 mm | - | 101 W/m² | - |
| 1777898507 | 10.56° C | 64% | 995.7 hPa | 0 mm | - | 82 W/m² | - |
| 1777898204 | 10.56° C | 66% | 995.6 hPa | 0 mm | - | 70 W/m² | - |
| 1777897902 | 10.56° C | 65% | 995.6 hPa | 0 mm | - | 64 W/m² | - |
| 1777897597 | 10.56° C | 65% | 995.3 hPa | 0 mm | - | 63 W/m² | - |
| 1777897293 | 10.56° C | 63% | 995.2 hPa | 0 mm | - | 63 W/m² | - |
| 1777896989 | 10.56° C | 64% | 995.1 hPa | 0 mm | - | 62 W/m² | - |
| 1777896687 | 10.56° C | 65% | 995.1 hPa | 0 mm | - | 59 W/m² | - |
| 1777896383 | 10.56° C | 65% | 995.2 hPa | 0 mm | - | 48 W/m² | - |
| 1777896081 | 10.56° C | 63% | 994.9 hPa | 0 mm | - | 40 W/m² | - |
| 1777895779 | 10.56° C | 63% | 994.9 hPa | 0 mm | - | 35 W/m² | - |
| 1777895476 | 10.56° C | 63% | 995 hPa | 0 mm | - | 30 W/m² | - |
| 1777895174 | 10.56° C | 67% | 995 hPa | 0 mm | - | 25 W/m² | - |
| 1777894871 | 10.56° C | 66% | 994.8 hPa | 0 mm | - | 17 W/m² | - |
| 1777894568 | 10.56° C | 67% | 994.6 hPa | 0 mm | - | 15 W/m² | - |
| 1777894266 | 10.56° C | 67% | 994.5 hPa | 0 mm | - | 14 W/m² | - |
| 1777893962 | 10.56° C | 68% | 994.6 hPa | 0 mm | - | 12 W/m² | - |
| 1777893659 | 11.11° C | 68% | 994.5 hPa | 0 mm | - | 10 W/m² | - |
| 1777893355 | 11.11° C | 67% | 994.5 hPa | 0 mm | - | 8 W/m² | - |
| 1777893051 | 11.11° C | 68% | 994.3 hPa | 0 mm | - | 6 W/m² | - |
| 1777892749 | 11.11° C | 67% | 994 hPa | 0 mm | - | 4 W/m² | - |
| 1777892444 | 11.11° C | 64% | 993.8 hPa | 0 mm | - | 2 W/m² | - |
* Rain latest hour (hover to see other rain measurements)
** Current wind speed in m/s (hover to see current wind gust speed)